THORAD DELTA 1 DEB, 9985

Orbit data source: Space-Track

THORAD DELTA 1 DEB, 9985 is space debris in SSO originally from a launch on Fri, 15 Nov 1974 UTC launched from the Air Force Western Test Range (AFWTR). Debris objects in space refer to the collection of defunct objects orbiting the Earth. Examples of debris include non-operational satellites, rocket bodies, and fragments generated from explosions, collisions, or faulty payload assembly.

Loading next visibility...
Identifier
9985, 1974-089EC
Orbit
SSO
Country
Flag of USUS
Related business
Manufacturer
Unknown
Mission
Spacecraft
Bus & Motor
Unknown
Mass
Unknown
Launch date (UTC)
1974-11-15 (51 years ago)
Launch vehicle
Unknown
Launch site
Air Force Western Test Range (AFWTR)
Object type
Payload
Rocket body
Debris
Shape & HBR
Unknown shape, 0.1 m
Radar Cross Section
Small (<0.1 m²)

Expand to show TLE details & history
Last TLE update: 17 hours ago

TLE from 17 hours ago
0 THORAD DELTA 1 DEB
1  9985U 74089EC  25353.40162398 -.00000020  00000-0  16922-3 0  9996
2  9985 101.9690 312.6719 0049538   7.2968 147.2420 12.49076247330030
Epoch: 2025-12-19T09:38Z
TLE epoch observation values (Epoch: 2025-12-19T09:38:20.311Z)
Latitude
24.59878°
Longitude
-94.6139°
Altitude
1,503.776 km
Speed
7.1 km/s
True Right ascension
09h 12m 51s
True Declination
24° 28' 52"
Sunlit
Object was in full shadow at epoch
Visualization orbit readout
Latitude
Unknown
Longitude
Unknown
Altitude
Unknown
Speed
Unknown
Apparent Right ascension
Unknown
Apparent Declination
Unknown
Sunlit
N/A
Visualization observer readout
Local Sidereal Time
01:23:33
Azimuth
Unknown
Elevation
Unknown
Doppler factor
Unknown
Orbital elements
Apogee altitude
1,504.78 km
Perigee altitude
1,427.064 km
Semi-major axis
7,844.059 km
Eccentricity
0.00495
Inclination
101.969°
RAAN
312.6719°
Arg. of periapsis
7.2968°
True anomaly
147.54757°
Mean anomaly
147.242°
Eccentric anomaly
147.39494°
Mean motion
3.12415 °/min
Orbital period
115.23 mins
BSTAR
0.00016922
Loading maneuver chart data...
Computing Atmospheric mass density...

Documentation

Showing up to 5 results
|